Regional Weather Roundup
Issued by NWS

Home | Current Version | Previous Version | Text Only | Print | Product List | Glossary Off
Versions: 1 2 3 4 5 6 7 8 9 10 11 12 13 14 15 16 17 18 19 20 21 22 23 24 25 26 27 28 29 30 31 32 33 34 35 36 37 38 39 40 41 42 43 44 45 46 47 48 49 50

042
ASUS43 KMKX 230311
RWRWI

WISCONSIN REGIONAL WEATHER ROUNDUP
NATIONAL WEATHER SERVICE MILWAUKEE/SULLIVAN WI
1000 PM CDT SAT APR 22 2017

NOTE: "FAIR" INDICATES FEW OR NO CLOUDS BELOW 12,000 FEET WITH NO
SIGNIFICANT WEATHER AND/OR OBSTRUCTIONS TO VISIBILITY.

WIZ001-002-006>008-014>016-023>028-230400-
NORTHWEST WISCONSIN

CITY           SKY/WX    TMP DP  RH WIND       PRES   REMARKS
SUPERIOR ARPT  PTCLDY    57  40  54 NE3       30.04S
ASHLAND        CLOUDY    54  40  59 NE13      30.07R
HAYWARD        CLEAR     48  33  56 S3        30.07R
SIREN          CLEAR     55  31  39 CALM      30.08S
CUMBERLAND     CLEAR     54  32  43 SW3       30.09S
RICE LAKE      CLEAR     55  33  43 SW3       30.10S
CHETEK         CLEAR     53  34  49 W3        30.09S
LADYSMITH      CLEAR     53  33  47 SW6       30.09S
EAU CLAIRE     CLEAR     54  34  46 S5        30.09F
MENOMONIE      CLEAR     56  33  42 SW6       30.10S
NEW RICHMOND   CLEAR     54  32  43 CALM      30.10S
OSCEOLA        CLEAR     55  34  45 SW5       30.12S
$$

WIZ003>005-009-010-017-018-230400-
NORTH CENTRAL WISCONSIN

CITY           SKY/WX    TMP DP  RH WIND       PRES   REMARKS
MANITOWISH WTR PTCLDY    53  31  43 W6        30.05S
ARBOR VITAE    CLEAR     50  36  57 CALM      30.06R
WOODRUFF       CLEAR     50  36  57 CALM      30.06R
RHINELANDER    CLEAR     51  31  46 SW7       30.07S
EAGLE RIVER    CLEAR     47  31  51 SW6       30.05S
LAND O LAKES   CLEAR     54  29  38 W5        30.05S
PHILLIPS       CLEAR     49  34  55 CALM      30.07S
TOMAHAWK       CLEAR     50  31  48 CALM      30.08S
MEDFORD        CLEAR     52  34  50 SW5       30.09F
MERRILL        CLEAR     53  33  47 SW6       30.09S
$$

WIZ029-030-035-036-043>047-230400-
CENTRAL WISCONSIN

CITY           SKY/WX    TMP DP  RH WIND       PRES   REMARKS
WAUSAU         CLEAR     53  32  44 SW7       30.08F
MOSINEE        CLEAR     48  32  53 SW5       30.12S
MARSHFIELD     CLEAR     50  35  56 SW6       30.10F
STEVENS POINT  CLEAR     45  32  59 CALM      30.12F
WAUPACA        CLEAR     49  34  56 CALM      30.12F
WAUTOMA        CLEAR     45  30  55 CALM      30.13S
WISC RAPIDS    CLEAR     45  36  70 SW3       30.12F
CAMP DOUGLAS   CLEAR     44  36  74 CALM      30.13S
$$

WIZ011>013-019>022-031-037>040-048>050-230400-
NORTHEAST WISCONSIN

CITY           SKY/WX    TMP DP  RH WIND       PRES   REMARKS
ANTIGO         CLEAR     47  32  55 SW8       30.09S
SHAWANO        CLEAR     56  31  38 CALM      30.09F
OCONTO         CLEAR     54  31  40 SW8       30.08F
STURGEON BAY   CLEAR     49  34  56 S12       30.09F
GREEN BAY      CLEAR     52  37  56 S7        30.11F
MANITOWOC      CLEAR     49  30  48 SW6       30.13F
APPLETON       PTCLDY    48  32  53 VRB6      30.11S
CLINTONVILLE   CLEAR     52  32  46 SW6       30.10F
OSHKOSH        CLEAR     51  33  50 S9        30.13S
$$

WIZ032>034-041-042-053>061-230400-
SOUTHWEST WISCONSIN

CITY           SKY/WX    TMP DP  RH WIND       PRES   REMARKS
LA CROSSE      CLEAR     56  37  49 S3        30.13S
SPARTA         CLEAR     43  33  67 CALM      30.15S
VIROQUA        CLEAR     55  24  30 S3        30.15F
BOSCOBEL       CLEAR     47  35  63 CALM      30.16R
PRAIRIE DU CHI CLEAR     49  35  58 CALM      30.16S
PLATTEVILLE    CLEAR     55  25  30 W3        30.17S
$$

WIZ056-057-062-063-064-067-068-230400-
SOUTH CENTRAL WISCONSIN

CITY           SKY/WX    TMP DP  RH WIND       PRES   REMARKS
REEDSBURG      CLEAR     51  33  49 CALM      30.15R
BARABOO/DELLS  CLEAR     47  31  53 S5        30.14S
LONE ROCK      CLEAR     48  39  71 CALM      30.16R
MINERAL POINT  CLEAR     57  21  24 SW3       30.16S
MADISON        CLEAR     48  38  68 S3        30.15S
MIDDLETON      CLEAR     46  35  66 CALM      30.16S
WATERTOWN      CLEAR     44  36  74 CALM      30.15S
MONROE         CLEAR     54  27  35 CALM      30.16S
JANESVILLE     CLEAR     50  30  46 CALM      30.16S
$$

WIZ051-052-058>065-066-070>072-230400-
SOUTHEAST WISCONSIN

CITY           SKY/WX    TMP DP  RH WIND       PRES   REMARKS
MILWAUKEE      CLEAR     49  24  37 CALM      30.16S
WAUKESHA       NOT AVBL
MILWAUKEE/TIMM CLEAR     46  21  36 CALM      30.17S
RACINE         CLEAR     43  28  55 CALM      30.18R
KENOSHA        CLEAR     43  29  57 W3        30.17R
FOND DU LAC    CLEAR     50  36  58 SW5       30.14S
SHEBOYGAN      CLEAR     45  32  60 SW3       30.14F
WEST BEND      CLEAR     43  34  70 CALM      30.15F
JUNEAU         CLEAR     50  33  51 S3        30.15F
$$

LSZ147-162-230400-
LAKE SUPERIOR

STATION/POSITION TIME  TEMP    WIND        PRES    WAVE
                       AIR SEA DIR/SP/G            HT/PER
                 (UTC) (F)     (DEG/KT/KT) (MB)    (FT/S)
DEVILS ISLAND    0300   49      10/ 14/ 15 1018.4R
PORT WING        0200   51      10/ 11     1017.3
SAXON HARBOR     0240   48      30/  9/ 16 1017.9R
$$

LMZ867-665-643>646-230400-
LAKE MICHIGAN

STATION/POSITION TIME  TEMP    WIND        PRES    WAVE
                       AIR SEA DIR/SP/G            HT/PER
                 (UTC) (F)     (DEG/KT/KT) (MB)    (FT/S)
CHAMBERS ISLAND  0240   51     180/  9/ 15 1017.9S
N MID LAKE BUOY  0250   42 37  190/ 12/ 14 1019.4F   1/ 3
NORTHPORT PIER   0240   49     180/  5/ 10 1017.9F
SISTER BAY       0051   51     190/ 12/ 15   N/A
KEWAUNEE LAKESHO 0248   51     220/ 11/ 14 1019.2F
SHEBOYGAN LAKESH 0300   50     210/  7/  7 1020.7F
PORT WASHINGTON  0240   47     290/  2/  3 1022.0S
MILWAUKEE LAKESH 0250   50        CALM       N/A
KENOSHA   LAKESH 0300   49      CALM  /  3 1021.3
$$

TC  - TEMPERATURE IN CELSIUS
VSB - VISIBILITY IN STATUTE MILES
WCI - WIND CHILL INDEX
HX  - HEAT INDEX





USA.gov is the U.S. government's official web portal to all federal, state and local government web resources and services.